BADR-4

Last updated on Thu Nov 06 2025 00:02:46 GMT+0000 (Coordinated Universal Time)

1 29526U 06051A 25309.11182833 .00000158 00000+0 00000+0 0 9994 2 29526 1.4228 83.4916 0007131 178.7222 208.9120 1.00273406 49025
UTC large
Height (km)
Speed (km/s)
/
Latitude / Longitude
Inclination (degrees)
Orbital Period (minutes)
Azimuth
Elevation
Range (km)
Doppler Factor

Next 0 passes for location: London (51.5072 / 0.1276)

Sorry there are no passes over London.